Location: A�t �Alizem
(31.2076°N, 8.7872°W)
Time: 16:05:16
(UTC+00:00)

Cosmos 2278 Rocket - Pass Details

Date: 27 November 2020
Orbit: 839 x 847 km, 71.0° (Epoch: 25 January)

Event Time Altitude Azimuth Distance (km) Brightness Sun altitude
Rises 18:15:10 0° 332° (NNW) 3,408 5.5 -9.3°
Reaches altitude 10° 18:17:42 10° 326° (NNW) 2,470 4.8 -9.8°
Maximum altitude 18:23:04 46° 255° (WSW) 1,129 3.5 -10.9°
Drops below altitude 10° 18:28:26 10° 183° (S) 2,460 4.9 -12.0°
Sets 18:30:57 0° 178° (S) 3,392 5.5 -12.5°
